Location: Les Chemineaux
(47.3024°N, 1.5104°E)
Time: 05:00:46
(UTC+00:00)

NOSS 3-1 (C) - Pass Details

Date: 19 May 2025
Orbit: 632 x 1571 km, 63.4° (Epoch: 02 June)

Event Time Altitude Azimuth Distance (km) Brightness Sun altitude
Rises 22:05:53 0° 237° (WSW) 3,002 6.0 -18.7°
Reaches altitude 10° 22:08:05 10° 243° (WSW) 2,154 5.3 -18.9°
Maximum altitude 22:12:48 51° 319° (NW) 985 3.9 -19.2°
Drops below altitude 10° 22:18:35 10° 35° (NE) 2,624 6.2 -19.6°
Sets 22:21:31 0° 41° (NE) 3,728 6.9 -19.8°
